Year,Month,Day,Hour,Minute,Value (Times are PST for temperature in C)
2016,07,19,00,00,19.20
2016,07,19,00,01,19.20
2016,07,19,00,02,19.20
2016,07,19,00,03,19.20
2016,07,19,00,04,19.20
2016,07,19,00,05,19.20
2016,07,19,00,06,19.20
2016,07,19,00,07,19.20
2016,07,19,00,08,19.20
2016,07,19,00,09,19.20
2016,07,19,00,10,19.20
2016,07,19,00,11,19.20
2016,07,19,00,12,19.10
2016,07,19,00,13,19.10
2016,07,19,00,14,19.10
2016,07,19,00,15,19.10
2016,07,19,00,16,19.10
2016,07,19,00,17,19.10
2016,07,19,00,18,19.10
2016,07,19,00,19,19.10
2016,07,19,00,20,19.10
2016,07,19,00,21,19.10
2016,07,19,00,22,19.10
2016,07,19,00,23,19.10
2016,07,19,00,24,19.10
2016,07,19,00,25,19.10
2016,07,19,00,26,19.10
2016,07,19,00,27,19.10
2016,07,19,00,28,19.00
2016,07,19,00,29,19.00
2016,07,19,00,30,19.00
2016,07,19,00,31,19.00
2016,07,19,00,32,19.00
2016,07,19,00,33,19.00
2016,07,19,00,34,19.00
2016,07,19,00,35,19.00
2016,07,19,00,36,19.00
2016,07,19,00,37,19.00
2016,07,19,00,38,19.00
2016,07,19,00,39,19.00
2016,07,19,00,40,19.00
2016,07,19,00,41,19.00
2016,07,19,00,42,19.00
2016,07,19,00,43,19.00
2016,07,19,00,44,19.00
2016,07,19,00,45,19.00
2016,07,19,00,46,19.00
2016,07,19,00,47,19.00
2016,07,19,00,48,19.00
2016,07,19,00,49,19.00
2016,07,19,00,50,19.00
2016,07,19,00,51,19.00
2016,07,19,00,52,18.90
2016,07,19,00,53,18.90
2016,07,19,00,54,18.90
2016,07,19,00,55,18.90
2016,07,19,00,56,18.90
2016,07,19,00,57,18.90
2016,07,19,00,58,18.90
2016,07,19,00,59,18.90
2016,07,19,01,00,18.90
2016,07,19,01,01,18.90
2016,07,19,01,02,18.90
2016,07,19,01,03,18.90
2016,07,19,01,04,18.90
2016,07,19,01,05,18.90
2016,07,19,01,06,18.90
2016,07,19,01,07,18.90
2016,07,19,01,08,18.90
2016,07,19,01,09,18.90
2016,07,19,01,10,18.90
2016,07,19,01,11,18.80
2016,07,19,01,12,18.80
2016,07,19,01,13,18.80
2016,07,19,01,14,18.80
2016,07,19,01,15,18.80
2016,07,19,01,16,18.80
2016,07,19,01,17,18.80
2016,07,19,01,18,18.80
2016,07,19,01,19,18.80
2016,07,19,01,20,18.80
2016,07,19,01,21,18.80
2016,07,19,01,22,18.80
2016,07,19,01,23,18.80
2016,07,19,01,24,18.80
2016,07,19,01,25,18.80
2016,07,19,01,26,18.80
2016,07,19,01,27,18.80
2016,07,19,01,28,18.80
2016,07,19,01,29,18.80
2016,07,19,01,30,18.80
2016,07,19,01,31,18.80
2016,07,19,01,32,18.80
2016,07,19,01,33,18.80
2016,07,19,01,34,18.70
2016,07,19,01,35,18.70
2016,07,19,01,36,18.70
2016,07,19,01,37,18.70
2016,07,19,01,38,18.70
2016,07,19,01,39,18.70
2016,07,19,01,40,18.70
2016,07,19,01,41,18.70
2016,07,19,01,42,18.70
2016,07,19,01,43,18.70
2016,07,19,01,44,18.70
2016,07,19,01,45,18.70
2016,07,19,01,46,18.70
2016,07,19,01,47,18.70
2016,07,19,01,48,18.70
2016,07,19,01,49,18.70
2016,07,19,01,50,18.70
2016,07,19,01,51,18.70
2016,07,19,01,52,18.70
2016,07,19,01,53,18.70
2016,07,19,01,54,18.70
2016,07,19,01,55,18.70
2016,07,19,01,56,18.70
2016,07,19,01,57,18.70
2016,07,19,01,58,18.70
2016,07,19,01,59,18.70
2016,07,19,02,00,18.70
2016,07,19,02,01,18.70
2016,07,19,02,02,18.70
2016,07,19,02,03,18.70
2016,07,19,02,04,18.70
2016,07,19,02,05,18.70
2016,07,19,02,06,18.70
2016,07,19,02,07,18.70
2016,07,19,02,08,18.70
2016,07,19,02,09,18.70
2016,07,19,02,10,18.70
2016,07,19,02,11,18.70
2016,07,19,02,12,18.70
2016,07,19,02,13,18.70
2016,07,19,02,14,18.60
2016,07,19,02,15,18.60
2016,07,19,02,16,18.60
2016,07,19,02,17,18.60
2016,07,19,02,18,18.60
2016,07,19,02,19,18.60
2016,07,19,02,20,18.60
2016,07,19,02,21,18.60
2016,07,19,02,22,18.60
2016,07,19,02,23,18.60
2016,07,19,02,24,18.60
2016,07,19,02,25,18.60
2016,07,19,02,26,18.50
2016,07,19,02,27,18.50
2016,07,19,02,28,18.50
2016,07,19,02,29,18.50
2016,07,19,02,30,18.50
2016,07,19,02,31,18.50
2016,07,19,02,32,18.50
2016,07,19,02,33,18.50
2016,07,19,02,34,18.40
2016,07,19,02,35,18.40
2016,07,19,02,36,18.40
2016,07,19,02,37,18.40
2016,07,19,02,38,18.40
2016,07,19,02,39,18.40
2016,07,19,02,40,18.40
2016,07,19,02,41,18.40
2016,07,19,02,42,18.40
2016,07,19,02,43,18.40
2016,07,19,02,44,18.40
2016,07,19,02,45,18.30
2016,07,19,02,46,18.30
2016,07,19,02,47,18.30
2016,07,19,02,48,18.30
2016,07,19,02,49,18.30
2016,07,19,02,50,18.30
2016,07,19,02,51,18.40
2016,07,19,02,52,18.40
2016,07,19,02,53,18.40
2016,07,19,02,54,18.40
2016,07,19,02,55,18.40
2016,07,19,02,56,18.40
2016,07,19,02,57,18.40
2016,07,19,02,58,18.40
2016,07,19,02,59,18.40
2016,07,19,03,00,18.40
2016,07,19,03,01,18.40
2016,07,19,03,02,18.50
2016,07,19,03,06,18.50
2016,07,19,03,07,18.50
2016,07,19,03,08,18.50
2016,07,19,03,09,18.50
2016,07,19,03,10,18.50
2016,07,19,03,11,18.50
2016,07,19,03,12,18.50
2016,07,19,03,13,18.50
2016,07,19,03,14,18.50
2016,07,19,03,15,18.50
2016,07,19,03,16,18.50
2016,07,19,03,17,18.50
2016,07,19,03,18,18.50
2016,07,19,03,19,18.50
2016,07,19,03,20,18.50
2016,07,19,03,21,18.50
2016,07,19,03,22,18.40
2016,07,19,03,23,18.40
2016,07,19,03,24,18.40
2016,07,19,03,25,18.40
2016,07,19,03,26,18.40
2016,07,19,03,27,18.40
2016,07,19,03,28,18.40
2016,07,19,03,29,18.40
2016,07,19,03,30,18.40
2016,07,19,03,31,18.40
2016,07,19,03,32,18.40
2016,07,19,03,33,18.30
2016,07,19,03,34,18.40
2016,07,19,03,35,18.40
2016,07,19,03,36,18.40
2016,07,19,03,37,18.40
2016,07,19,03,38,18.40
2016,07,19,03,39,18.40
2016,07,19,03,40,18.30
2016,07,19,03,41,18.30
2016,07,19,03,42,18.30
2016,07,19,03,43,18.30
2016,07,19,03,44,18.30
2016,07,19,03,45,18.30
2016,07,19,03,46,18.30
2016,07,19,03,47,18.30
2016,07,19,03,48,18.20
2016,07,19,03,49,18.30
2016,07,19,03,50,18.20
2016,07,19,03,51,18.20
2016,07,19,03,52,18.20
2016,07,19,03,53,18.20
2016,07,19,03,54,18.20
2016,07,19,03,55,18.20
2016,07,19,03,56,18.20
2016,07,19,03,57,18.10
2016,07,19,03,58,18.10
2016,07,19,03,59,18.10
2016,07,19,04,00,18.10
2016,07,19,04,01,18.10
2016,07,19,04,02,18.10
2016,07,19,04,03,18.10
2016,07,19,04,04,18.10
2016,07,19,04,05,18.10
2016,07,19,04,06,18.20
2016,07,19,04,07,18.20
2016,07,19,04,08,18.20
2016,07,19,04,09,18.20
2016,07,19,04,10,18.20
2016,07,19,04,11,18.30
2016,07,19,04,12,18.30
2016,07,19,04,13,18.30
2016,07,19,04,14,18.30
2016,07,19,04,15,18.30
2016,07,19,04,16,18.30
2016,07,19,04,17,18.30
2016,07,19,04,18,18.30
2016,07,19,04,19,18.30
2016,07,19,04,20,18.30
2016,07,19,04,21,18.30
2016,07,19,04,22,18.30
2016,07,19,04,23,18.30
2016,07,19,04,24,18.30
2016,07,19,04,25,18.30
2016,07,19,04,26,18.30
2016,07,19,04,27,18.30
2016,07,19,04,28,18.30
2016,07,19,04,29,18.30
2016,07,19,04,30,18.30
2016,07,19,04,31,18.30
2016,07,19,04,32,18.30
2016,07,19,04,33,18.20
2016,07,19,04,34,18.20
2016,07,19,04,35,18.20
2016,07,19,04,36,18.20
2016,07,19,04,37,18.10
2016,07,19,04,38,18.20
2016,07,19,04,39,18.10
2016,07,19,04,40,18.10
2016,07,19,04,41,18.10
2016,07,19,04,42,18.10
2016,07,19,04,43,18.10
2016,07,19,04,44,18.10
2016,07,19,04,45,18.10
2016,07,19,04,46,18.10
2016,07,19,04,47,18.10
2016,07,19,04,48,18.10
2016,07,19,04,49,18.10
2016,07,19,04,50,18.10
2016,07,19,04,51,18.10
2016,07,19,04,52,18.10
2016,07,19,04,53,18.10
2016,07,19,04,54,18.10
2016,07,19,04,55,18.10
2016,07,19,04,56,18.10
2016,07,19,04,57,18.10
2016,07,19,04,58,18.10
2016,07,19,04,59,18.10
2016,07,19,05,00,18.20
2016,07,19,05,01,18.20
2016,07,19,05,02,18.20
2016,07,19,05,03,18.20
2016,07,19,05,04,18.20
2016,07,19,05,05,18.20
2016,07,19,05,06,18.20
2016,07,19,05,07,18.20
2016,07,19,05,08,18.20
2016,07,19,05,09,18.20
2016,07,19,05,10,18.20
2016,07,19,05,11,18.20
2016,07,19,05,12,18.20
2016,07,19,05,13,18.20
2016,07,19,05,14,18.20
2016,07,19,05,15,18.20
2016,07,19,05,16,18.20
2016,07,19,05,17,18.20
2016,07,19,05,18,18.20
2016,07,19,05,19,18.20
2016,07,19,05,20,18.20
2016,07,19,05,21,18.20
2016,07,19,05,22,18.20
2016,07,19,05,23,18.20
2016,07,19,05,24,18.20
2016,07,19,05,25,18.20
2016,07,19,05,26,18.10
2016,07,19,05,27,18.20
2016,07,19,05,28,18.10
2016,07,19,05,29,18.10
2016,07,19,05,30,18.10
2016,07,19,05,31,18.10
2016,07,19,05,32,18.10
2016,07,19,05,33,18.10
2016,07,19,05,34,18.10
2016,07,19,05,35,18.10
2016,07,19,05,36,18.10
2016,07,19,05,37,18.10
2016,07,19,05,38,18.10
2016,07,19,05,39,18.10
2016,07,19,05,40,18.10
2016,07,19,05,41,18.10
2016,07,19,05,42,18.10
2016,07,19,05,43,18.10
2016,07,19,05,44,18.10
2016,07,19,05,45,18.00
2016,07,19,05,46,18.00
2016,07,19,05,47,18.10
2016,07,19,05,48,18.00
2016,07,19,05,49,18.00
2016,07,19,05,50,18.00
2016,07,19,05,51,18.00
2016,07,19,05,52,18.00
2016,07,19,05,53,18.00
2016,07,19,05,54,18.00
2016,07,19,05,55,18.00
2016,07,19,05,56,17.90
2016,07,19,05,57,17.90
2016,07,19,05,58,17.90
2016,07,19,05,59,17.90
2016,07,19,06,00,17.90
2016,07,19,06,01,17.90
2016,07,19,06,02,17.90
2016,07,19,06,03,17.90
2016,07,19,06,04,17.90
2016,07,19,06,05,17.90
2016,07,19,06,06,17.90
2016,07,19,06,07,17.80
2016,07,19,06,08,17.80
2016,07,19,06,09,17.80
2016,07,19,06,10,17.80
2016,07,19,06,11,17.80
2016,07,19,06,12,17.70
2016,07,19,06,13,17.70
2016,07,19,06,14,17.70
2016,07,19,06,15,17.60
2016,07,19,06,16,17.60
2016,07,19,06,17,17.60
2016,07,19,06,18,17.60
2016,07,19,06,19,17.60
2016,07,19,06,20,17.50
2016,07,19,06,21,17.50
2016,07,19,06,22,17.50
2016,07,19,06,23,17.40
2016,07,19,06,24,17.40
2016,07,19,06,25,17.40
2016,07,19,06,26,17.40
2016,07,19,06,27,17.40
2016,07,19,06,28,17.40
2016,07,19,06,29,17.40
2016,07,19,06,30,17.40
2016,07,19,06,31,17.40
2016,07,19,06,32,17.40
2016,07,19,06,33,17.40
2016,07,19,06,34,17.40
2016,07,19,06,35,17.40
2016,07,19,06,36,17.40
2016,07,19,06,37,17.40
2016,07,19,06,38,17.40
2016,07,19,06,39,17.50
2016,07,19,06,40,17.50
2016,07,19,06,41,17.50
2016,07,19,06,42,17.50
2016,07,19,06,43,17.50
2016,07,19,06,44,17.50
2016,07,19,06,45,17.60
2016,07,19,06,46,17.60
2016,07,19,06,47,17.60
2016,07,19,06,48,17.60
2016,07,19,06,49,17.60
2016,07,19,06,50,17.60
2016,07,19,06,51,17.60
2016,07,19,06,52,17.60
2016,07,19,06,53,17.60
2016,07,19,06,54,17.70
2016,07,19,06,55,17.70
2016,07,19,06,56,17.70
2016,07,19,06,57,17.70
2016,07,19,06,58,17.70
2016,07,19,06,59,17.70
2016,07,19,07,00,17.60
2016,07,19,07,01,17.70
2016,07,19,07,02,17.60
2016,07,19,07,03,17.60
2016,07,19,07,04,17.70
2016,07,19,07,05,17.70
2016,07,19,07,06,17.70
2016,07,19,07,07,17.70
2016,07,19,07,08,17.70
2016,07,19,07,09,17.70
2016,07,19,07,10,17.70
2016,07,19,07,11,17.70
2016,07,19,07,12,17.60
2016,07,19,07,13,17.60
2016,07,19,07,14,17.60
2016,07,19,07,15,17.60
2016,07,19,07,16,17.60
2016,07,19,07,17,17.60
2016,07,19,07,18,17.60
2016,07,19,07,19,17.60
2016,07,19,07,20,17.60
2016,07,19,07,21,17.60
2016,07,19,07,22,17.60
2016,07,19,07,23,17.60
2016,07,19,07,24,17.60
2016,07,19,07,25,17.60
2016,07,19,07,26,17.60
2016,07,19,07,27,17.60
2016,07,19,07,28,17.60
2016,07,19,07,29,17.60
2016,07,19,07,30,17.50
2016,07,19,07,31,17.50
2016,07,19,07,32,17.50
2016,07,19,07,33,17.50
2016,07,19,07,34,17.50
2016,07,19,07,35,17.50
2016,07,19,07,36,17.40
2016,07,19,07,37,17.40
2016,07,19,07,38,17.40
2016,07,19,07,39,17.40
2016,07,19,07,40,17.40
2016,07,19,07,41,17.50
2016,07,19,07,42,17.50
2016,07,19,07,43,17.50
2016,07,19,07,44,17.50
2016,07,19,07,45,17.60
2016,07,19,07,46,17.60
2016,07,19,07,47,17.60
2016,07,19,07,48,17.60
2016,07,19,07,49,17.60
2016,07,19,07,50,17.60
2016,07,19,07,51,17.70
2016,07,19,07,52,17.70
2016,07,19,07,53,17.70
2016,07,19,07,54,17.70
2016,07,19,07,55,17.70
2016,07,19,07,56,17.70
2016,07,19,07,57,17.70
2016,07,19,07,58,17.70
2016,07,19,07,59,17.60
2016,07,19,08,00,17.60
2016,07,19,08,01,17.50
2016,07,19,08,02,17.50
2016,07,19,08,03,17.50
2016,07,19,08,04,17.50
2016,07,19,08,05,17.40
2016,07,19,08,06,17.40
2016,07,19,08,07,17.40
2016,07,19,08,08,17.40
2016,07,19,08,09,17.40
2016,07,19,08,10,17.30
2016,07,19,08,11,17.30
2016,07,19,08,12,17.30
2016,07,19,08,13,17.30
2016,07,19,08,14,17.30
2016,07,19,08,15,17.30
2016,07,19,08,16,17.30
2016,07,19,08,17,17.30
2016,07,19,08,18,17.30
2016,07,19,08,19,17.40
2016,07,19,08,20,17.40
2016,07,19,08,21,17.40
2016,07,19,08,22,17.40
2016,07,19,08,23,17.50
2016,07,19,08,24,17.50
2016,07,19,08,25,17.50
2016,07,19,08,26,17.50
2016,07,19,08,27,17.50
2016,07,19,08,28,17.50
2016,07,19,08,29,17.50
2016,07,19,08,30,17.60
2016,07,19,08,31,17.60
2016,07,19,08,32,17.60
2016,07,19,08,33,17.60
2016,07,19,08,34,17.60
2016,07,19,08,35,17.60
2016,07,19,08,36,17.50
2016,07,19,08,37,17.40
2016,07,19,08,38,17.40
2016,07,19,08,39,17.30
2016,07,19,08,40,17.20
2016,07,19,08,41,17.10
2016,07,19,08,42,17.00
2016,07,19,08,43,17.00
2016,07,19,08,44,16.90
2016,07,19,08,45,16.90
2016,07,19,08,46,16.90
2016,07,19,08,47,16.90
2016,07,19,08,48,16.90
2016,07,19,08,49,16.90
2016,07,19,08,50,17.00
2016,07,19,08,51,17.00
2016,07,19,08,52,17.10
2016,07,19,08,53,17.10
2016,07,19,08,54,17.00
2016,07,19,08,55,17.00
2016,07,19,08,56,16.90
2016,07,19,08,57,16.80
2016,07,19,08,58,16.70
2016,07,19,08,59,16.60
2016,07,19,09,00,16.50
2016,07,19,09,01,16.50
2016,07,19,09,02,16.40
2016,07,19,09,03,16.40
2016,07,19,09,04,16.30
2016,07,19,09,05,16.30
2016,07,19,09,06,16.30
2016,07,19,09,07,16.30
2016,07,19,09,08,16.40
2016,07,19,09,09,16.40
2016,07,19,09,10,16.40
2016,07,19,09,11,16.40
2016,07,19,09,12,16.40
2016,07,19,09,13,16.40
2016,07,19,09,14,16.50
2016,07,19,09,15,16.60
2016,07,19,09,16,16.60
2016,07,19,09,17,16.70
2016,07,19,09,18,16.80
2016,07,19,09,19,16.90
2016,07,19,09,20,17.00
2016,07,19,09,21,17.10
2016,07,19,09,22,17.10
2016,07,19,09,23,17.20
2016,07,19,09,24,17.30
2016,07,19,09,25,17.40
2016,07,19,09,26,17.50
2016,07,19,09,27,17.50
2016,07,19,09,28,17.60
2016,07,19,09,29,17.60
2016,07,19,09,30,17.60
2016,07,19,09,31,17.60
2016,07,19,09,32,17.60
2016,07,19,09,33,17.60
2016,07,19,09,34,17.60
2016,07,19,09,35,17.60
2016,07,19,09,36,17.50
2016,07,19,09,37,17.50
2016,07,19,09,38,17.40
2016,07,19,09,39,17.40
2016,07,19,09,40,17.50
2016,07,19,09,41,17.50
2016,07,19,09,42,17.60
2016,07,19,09,43,17.60
2016,07,19,09,44,17.70
2016,07,19,09,45,17.70
2016,07,19,09,46,17.80
2016,07,19,09,47,17.80
2016,07,19,09,48,17.90
2016,07,19,09,49,17.90
2016,07,19,09,50,18.00
2016,07,19,09,51,18.10
2016,07,19,09,52,18.20
2016,07,19,09,53,18.20
2016,07,19,09,54,18.30
2016,07,19,09,55,18.30
2016,07,19,09,56,18.40
2016,07,19,09,57,18.40
2016,07,19,09,58,18.40
2016,07,19,09,59,18.30
2016,07,19,10,00,18.30
2016,07,19,10,01,18.40
2016,07,19,10,02,18.40
2016,07,19,10,03,18.40
2016,07,19,10,04,18.50
2016,07,19,10,05,18.50
2016,07,19,10,06,18.60
2016,07,19,10,07,18.60
2016,07,19,10,08,18.60
2016,07,19,10,09,18.50
2016,07,19,10,10,18.50
2016,07,19,10,11,18.50
2016,07,19,10,12,18.40
2016,07,19,10,13,18.30
2016,07,19,10,14,18.20
2016,07,19,10,15,18.20
2016,07,19,10,16,18.10
2016,07,19,10,17,18.00
2016,07,19,10,18,17.90
2016,07,19,10,19,17.90
2016,07,19,10,20,17.90
2016,07,19,10,21,17.90
2016,07,19,10,22,17.90
2016,07,19,10,23,17.90
2016,07,19,10,24,17.90
2016,07,19,10,25,17.90
2016,07,19,10,26,17.80
2016,07,19,10,27,17.80
2016,07,19,10,28,17.80
2016,07,19,10,29,17.70
2016,07,19,10,30,17.70
2016,07,19,10,31,17.70
2016,07,19,10,32,17.70
2016,07,19,10,33,17.70
2016,07,19,10,34,17.80
2016,07,19,10,35,17.70
2016,07,19,10,36,17.70
2016,07,19,10,37,17.60
2016,07,19,10,38,17.60
2016,07,19,10,39,17.50
2016,07,19,10,40,17.50
2016,07,19,10,41,17.40
2016,07,19,10,42,17.40
2016,07,19,10,43,17.30
2016,07,19,10,44,17.30
2016,07,19,10,45,17.30
2016,07,19,10,46,17.30
2016,07,19,10,47,17.30
2016,07,19,10,48,17.30
2016,07,19,10,49,17.30
2016,07,19,10,50,17.40
2016,07,19,10,51,17.50
2016,07,19,10,52,17.50
2016,07,19,10,53,17.70
2016,07,19,10,54,17.80
2016,07,19,10,55,17.80
2016,07,19,10,56,17.90
2016,07,19,10,57,17.90
2016,07,19,10,58,17.90
2016,07,19,10,59,17.80
2016,07,19,11,00,17.80
2016,07,19,11,01,17.80
2016,07,19,11,02,17.80
2016,07,19,11,03,17.70
2016,07,19,11,04,17.70
2016,07,19,11,05,17.60
2016,07,19,11,06,17.60
2016,07,19,11,07,17.50
2016,07,19,11,08,17.50
2016,07,19,11,09,17.40
2016,07,19,11,10,17.30
2016,07,19,11,11,17.20
2016,07,19,11,12,17.20
2016,07,19,11,13,17.10
2016,07,19,11,14,17.10
2016,07,19,11,15,17.10
2016,07,19,11,16,17.10
2016,07,19,11,17,17.20
2016,07,19,11,18,17.20
2016,07,19,11,19,17.30
2016,07,19,11,20,17.50
2016,07,19,11,21,17.60
2016,07,19,11,22,17.70
2016,07,19,11,23,17.80
2016,07,19,11,24,18.00
2016,07,19,11,25,18.10
2016,07,19,11,26,18.20
2016,07,19,11,27,18.30
2016,07,19,11,28,18.40
2016,07,19,11,29,18.50
2016,07,19,11,30,18.60
2016,07,19,11,31,18.60
2016,07,19,11,32,18.70
2016,07,19,11,33,18.80
2016,07,19,11,34,18.90
2016,07,19,11,35,19.00
2016,07,19,11,36,19.10
2016,07,19,11,37,19.20
2016,07,19,11,38,19.20
2016,07,19,11,39,19.30
2016,07,19,11,40,19.40
2016,07,19,11,41,19.40
2016,07,19,11,42,19.50
2016,07,19,11,43,19.60
2016,07,19,11,44,19.60
2016,07,19,11,45,19.70
2016,07,19,11,46,19.70
2016,07,19,11,47,19.70
2016,07,19,11,48,19.70
2016,07,19,11,49,19.70
2016,07,19,11,50,19.60
2016,07,19,11,51,19.60
2016,07,19,11,52,19.60
2016,07,19,11,53,19.60
2016,07,19,11,54,19.60
2016,07,19,11,55,19.60
2016,07,19,11,56,19.60
2016,07,19,11,57,19.60
2016,07,19,11,58,19.60
2016,07,19,11,59,19.60
2016,07,19,12,00,19.60
2016,07,19,12,01,19.60
2016,07,19,12,02,19.60
2016,07,19,12,03,19.60
2016,07,19,12,04,19.60
2016,07,19,12,05,19.60
2016,07,19,12,06,19.60
2016,07,19,12,07,19.60
2016,07,19,12,08,19.60
2016,07,19,12,09,19.60
2016,07,19,12,10,19.60
2016,07,19,12,11,19.70
2016,07,19,12,12,19.70
2016,07,19,12,13,19.70
2016,07,19,12,14,19.80
2016,07,19,12,15,19.80
2016,07,19,12,16,19.80
2016,07,19,12,17,19.90
2016,07,19,12,18,19.90
2016,07,19,12,19,19.90
2016,07,19,12,20,19.90
2016,07,19,12,21,19.90
2016,07,19,12,22,20.00
2016,07,19,12,23,20.00
2016,07,19,12,24,20.00
2016,07,19,12,25,20.10
2016,07,19,12,26,20.00
2016,07,19,12,27,20.00
2016,07,19,12,28,20.00
2016,07,19,12,29,20.00
2016,07,19,12,30,19.90
2016,07,19,12,31,19.90
2016,07,19,12,32,19.90
2016,07,19,12,33,19.90
2016,07,19,12,34,19.90
2016,07,19,12,35,19.90
2016,07,19,12,36,19.90
2016,07,19,12,37,20.00
2016,07,19,12,38,20.00
2016,07,19,12,39,20.00
2016,07,19,12,40,20.00
2016,07,19,12,41,19.90
2016,07,19,12,42,19.90
2016,07,19,12,43,19.90
2016,07,19,12,44,19.90
2016,07,19,12,45,19.90
2016,07,19,12,46,19.90
2016,07,19,12,47,19.90
2016,07,19,12,48,20.00
2016,07,19,12,49,20.00
2016,07,19,12,50,20.10
2016,07,19,12,51,20.10
2016,07,19,12,52,20.20
2016,07,19,12,53,20.20
2016,07,19,12,54,20.20
2016,07,19,12,55,20.20
2016,07,19,12,56,20.30
2016,07,19,12,57,20.30
2016,07,19,12,58,20.30
2016,07,19,12,59,20.30
2016,07,19,13,00,20.30
2016,07,19,13,01,20.20
2016,07,19,13,02,20.10
2016,07,19,13,03,20.00
2016,07,19,13,04,19.90
2016,07,19,13,05,19.80
2016,07,19,13,06,19.80
2016,07,19,13,07,19.70
2016,07,19,13,08,19.70
2016,07,19,13,09,19.70
2016,07,19,13,10,19.70
2016,07,19,13,11,19.60
2016,07,19,13,12,19.60
2016,07,19,13,13,19.60
2016,07,19,13,14,19.60
2016,07,19,13,15,19.60
2016,07,19,13,16,19.60
2016,07,19,13,17,19.60
2016,07,19,13,18,19.60
2016,07,19,13,19,19.60
2016,07,19,13,20,19.60
2016,07,19,13,21,19.60
2016,07,19,13,22,19.60
2016,07,19,13,23,19.60
2016,07,19,13,24,19.70
2016,07,19,13,25,19.70
2016,07,19,13,26,19.80
2016,07,19,13,27,19.70
2016,07,19,13,28,19.70
2016,07,19,13,29,19.70
2016,07,19,13,30,19.80
2016,07,19,13,31,19.80
2016,07,19,13,32,19.90
2016,07,19,13,33,19.90
2016,07,19,13,34,20.00
2016,07,19,13,35,20.10
2016,07,19,13,36,20.20
2016,07,19,13,37,20.30
2016,07,19,13,38,20.40
2016,07,19,13,39,20.40
2016,07,19,13,40,20.50
2016,07,19,13,41,20.50
2016,07,19,13,42,20.60
2016,07,19,13,43,20.60
2016,07,19,13,44,20.70
2016,07,19,13,45,20.80
2016,07,19,13,46,20.80
2016,07,19,13,47,20.80
2016,07,19,13,48,20.70
2016,07,19,13,49,20.70
2016,07,19,13,50,20.60
2016,07,19,13,51,20.50
2016,07,19,13,52,20.40
2016,07,19,13,53,20.40
2016,07,19,13,54,20.40
2016,07,19,13,55,20.30
2016,07,19,13,56,20.30
2016,07,19,13,57,20.20
2016,07,19,13,58,20.20
2016,07,19,13,59,20.20
2016,07,19,14,00,20.20
2016,07,19,14,01,20.20
2016,07,19,14,02,20.20
2016,07,19,14,03,20.20
2016,07,19,14,04,20.20
2016,07,19,14,05,20.20
2016,07,19,14,06,20.20
2016,07,19,14,07,20.30
2016,07,19,14,08,20.30
2016,07,19,14,09,20.30
2016,07,19,14,10,20.30
2016,07,19,14,11,20.30
2016,07,19,14,12,20.40
2016,07,19,14,13,20.30
2016,07,19,14,14,20.30
2016,07,19,14,15,20.30
2016,07,19,14,16,20.40
2016,07,19,14,17,20.40
2016,07,19,14,18,20.40
2016,07,19,14,19,20.40
2016,07,19,14,20,20.40
2016,07,19,14,21,20.40
2016,07,19,14,22,20.30
2016,07,19,14,23,20.30
2016,07,19,14,24,20.30
2016,07,19,14,25,20.30
2016,07,19,14,26,20.30
2016,07,19,14,27,20.20
2016,07,19,14,28,20.20
2016,07,19,14,29,20.20
2016,07,19,14,30,20.10
2016,07,19,14,31,20.10
2016,07,19,14,32,20.10
2016,07,19,14,33,20.00
2016,07,19,14,34,20.10
2016,07,19,14,35,20.10
2016,07,19,14,36,20.10
2016,07,19,14,37,20.10
2016,07,19,14,38,20.20
2016,07,19,14,39,20.20
2016,07,19,14,40,20.30
2016,07,19,14,41,20.40
2016,07,19,14,42,20.40
2016,07,19,14,43,20.50
2016,07,19,14,44,20.60
2016,07,19,14,45,20.60
2016,07,19,14,46,20.70
2016,07,19,14,47,20.80
2016,07,19,14,48,20.80
2016,07,19,14,49,20.90
2016,07,19,14,50,21.00
2016,07,19,14,51,21.10
2016,07,19,14,52,21.10
2016,07,19,14,53,21.20
2016,07,19,14,54,21.20
2016,07,19,14,55,21.10
2016,07,19,14,56,21.00
2016,07,19,14,57,21.00
2016,07,19,14,58,20.90
2016,07,19,14,59,20.90
2016,07,19,15,00,21.00
2016,07,19,15,01,21.00
2016,07,19,15,02,21.10
2016,07,19,15,03,21.20
2016,07,19,15,04,21.40
2016,07,19,15,05,21.50
2016,07,19,15,06,21.60
2016,07,19,15,07,21.60
2016,07,19,15,08,21.50
2016,07,19,15,09,21.50
2016,07,19,15,10,21.40
2016,07,19,15,11,21.30
2016,07,19,15,12,21.20
2016,07,19,15,13,21.10
2016,07,19,15,14,20.90
2016,07,19,15,15,20.70
2016,07,19,15,16,20.60
2016,07,19,15,17,20.40
2016,07,19,15,18,20.30
2016,07,19,15,19,20.20
2016,07,19,15,20,20.10
2016,07,19,15,21,20.00
2016,07,19,15,22,19.90
2016,07,19,15,23,19.90
2016,07,19,15,24,19.90
2016,07,19,15,25,19.80
2016,07,19,15,26,19.80
2016,07,19,15,27,19.70
2016,07,19,15,28,19.60
2016,07,19,15,29,19.50
2016,07,19,15,30,19.40
2016,07,19,15,31,19.40
2016,07,19,15,32,19.40
2016,07,19,15,33,19.40
2016,07,19,15,34,19.30
2016,07,19,15,35,19.30
2016,07,19,15,36,19.30
2016,07,19,15,37,19.30
2016,07,19,15,38,19.20
2016,07,19,15,39,19.20
2016,07,19,15,40,19.20
2016,07,19,15,41,19.20
2016,07,19,15,42,19.20
2016,07,19,15,43,19.20
2016,07,19,15,44,19.20
2016,07,19,15,45,19.20
2016,07,19,15,46,19.20
2016,07,19,15,47,19.20
2016,07,19,15,48,19.20
2016,07,19,15,49,19.20
2016,07,19,15,50,19.20
2016,07,19,15,51,19.20
2016,07,19,15,52,19.30
2016,07,19,15,53,19.30
2016,07,19,15,54,19.30
2016,07,19,15,55,19.30
2016,07,19,15,56,19.30
2016,07,19,15,57,19.30
2016,07,19,15,58,19.30
2016,07,19,15,59,19.30
2016,07,19,16,00,19.20
2016,07,19,16,01,19.20
2016,07,19,16,02,19.20
2016,07,19,16,03,19.20
2016,07,19,16,04,19.20
2016,07,19,16,05,19.20
2016,07,19,16,06,19.20
2016,07,19,16,07,19.20
2016,07,19,16,08,19.20
2016,07,19,16,09,19.20
2016,07,19,16,10,19.20
2016,07,19,16,11,19.20
2016,07,19,16,12,19.20
2016,07,19,16,13,19.20
2016,07,19,16,14,19.20
2016,07,19,16,15,19.20
2016,07,19,16,16,19.20
2016,07,19,16,17,19.20
2016,07,19,16,18,19.20
2016,07,19,16,19,19.30
2016,07,19,16,20,19.30
2016,07,19,16,21,19.30
2016,07,19,16,22,19.30
2016,07,19,16,23,19.40
2016,07,19,16,24,19.40
2016,07,19,16,25,19.40
2016,07,19,16,26,19.30
2016,07,19,16,27,19.30
2016,07,19,16,28,19.20
2016,07,19,16,29,19.20
2016,07,19,16,30,19.10
2016,07,19,16,31,19.00
2016,07,19,16,32,19.00
2016,07,19,16,33,18.90
2016,07,19,16,34,18.90
2016,07,19,16,35,18.80
2016,07,19,16,36,18.80
2016,07,19,16,37,18.80
2016,07,19,16,38,18.80
2016,07,19,16,39,18.80
2016,07,19,16,40,18.80
2016,07,19,16,41,18.70
2016,07,19,16,42,18.70
2016,07,19,16,43,18.70
2016,07,19,16,44,18.70
2016,07,19,16,45,18.60
2016,07,19,16,46,18.60
2016,07,19,16,47,18.60
2016,07,19,16,48,18.60
2016,07,19,16,49,18.60
2016,07,19,16,50,18.60
2016,07,19,16,51,18.70
2016,07,19,16,52,18.70
2016,07,19,16,53,18.70
2016,07,19,16,54,18.80
2016,07,19,16,55,18.80
2016,07,19,16,56,18.80
2016,07,19,16,57,18.80
2016,07,19,16,58,18.80
2016,07,19,16,59,18.80
2016,07,19,17,00,18.80
2016,07,19,17,01,18.80
2016,07,19,17,02,18.80
2016,07,19,17,03,18.80
2016,07,19,17,04,18.90
2016,07,19,17,05,18.90
2016,07,19,17,06,18.90
2016,07,19,17,07,18.90
2016,07,19,17,08,18.90
2016,07,19,17,09,18.90
2016,07,19,17,10,18.90
2016,07,19,17,11,18.90
2016,07,19,17,12,18.90
2016,07,19,17,13,18.90
2016,07,19,17,14,18.90
2016,07,19,17,15,19.00
2016,07,19,17,16,19.00
2016,07,19,17,17,19.10
2016,07,19,17,18,19.10
2016,07,19,17,19,19.10
2016,07,19,17,20,19.10
2016,07,19,17,21,19.10
2016,07,19,17,22,19.10